BENGL51 KNBC-KNBC

Flight info

Callsign BENGL51
Flight time 1h 1m
Altitude 21000
Route KJ09U
Aircraft VF35/M-SDFIRY/LB1

Departure

Time 2026-05-03 22:08
Airport Beaufort MCAS - Merritt Field (KNBC)

Arrival

Time 2026-05-03 23:09
Airport Beaufort MCAS - Merritt Field (KNBC)
Time Latitude Longitude Altitude Speed Heading
2026-05-03 21:54 32.46899 -80.72727 29 ft 0 kts 140°
2026-05-03 21:56 32.46898 -80.72727 29 ft 2 kts 140°
2026-05-03 21:56 32.46907 -80.72716 29 ft 2 kts 340°
2026-05-03 21:56 32.46907 -80.72717 29 ft 0 kts 327°
2026-05-03 22:00 32.46908 -80.72717 26 ft 1 kts 327°
2026-05-03 22:01 32.46928 -80.72755 29 ft 7 kts 275°
2026-05-03 22:01 32.46919 -80.72812 29 ft 7 kts 257°
2026-05-03 22:01 32.46937 -80.72860 29 ft 8 kts 310°
2026-05-03 22:01 32.46970 -80.72904 29 ft 6 kts 311°
2026-05-03 22:02 32.46992 -80.72932 30 ft 0 kts 311°
2026-05-03 22:05 32.46994 -80.72935 30 ft 0 kts 311°
2026-05-03 22:07 32.47005 -80.72950 34 ft 10 kts 311°
2026-05-03 22:07 32.47072 -80.73011 30 ft 12 kts
2026-05-03 22:07 32.47152 -80.72958 30 ft 9 kts 42°
2026-05-03 22:08 32.47573 -80.72516 33 ft 177 kts 42°
2026-05-03 22:08 32.48827 -80.71212 741 ft 294 kts 41°
2026-05-03 22:08 32.50446 -80.69494 1795 ft 317 kts 51°
2026-05-03 22:08 32.51460 -80.67195 2579 ft 325 kts 76°
2026-05-03 22:09 32.51587 -80.64627 2013 ft 316 kts 105°
2026-05-03 22:09 32.50634 -80.62358 1740 ft 309 kts 131°
2026-05-03 22:09 32.49143 -80.60545 1595 ft 303 kts 139°
2026-05-03 22:10 32.45786 -80.57131 1568 ft 384 kts 144°
2026-05-03 22:10 32.43269 -80.55216 1601 ft 455 kts 149°
2026-05-03 22:10 32.40716 -80.53442 1512 ft 399 kts 150°
2026-05-03 22:10 32.38420 -80.51963 1349 ft 355 kts 162°
2026-05-03 22:11 32.36063 -80.51660 1356 ft 336 kts 187°
2026-05-03 22:11 32.33894 -80.52632 1252 ft 339 kts 214°
2026-05-03 22:11 32.32317 -80.54673 1005 ft 348 kts 237°
2026-05-03 22:11 32.31132 -80.57171 936 ft 349 kts 240°
2026-05-03 22:12 32.29789 -80.59557 955 ft 347 kts 228°
2026-05-03 22:12 32.27923 -80.61309 984 ft 345 kts 207°
2026-05-03 22:12 32.25788 -80.62602 1085 ft 343 kts 206°
2026-05-03 22:12 32.23649 -80.63907 1067 ft 345 kts 206°
2026-05-03 22:13 32.21517 -80.65250 1028 ft 347 kts 207°
2026-05-03 22:13 32.19390 -80.66605 1039 ft 345 kts 207°
2026-05-03 22:13 32.17269 -80.67967 1039 ft 351 kts 207°
2026-05-03 22:13 32.15123 -80.69336 1014 ft 350 kts 208°
2026-05-03 22:14 32.12987 -80.70682 1000 ft 345 kts 207°
2026-05-03 22:14 32.10899 -80.72015 1000 ft 343 kts 208°
2026-05-03 22:14 32.08753 -80.73399 983 ft 355 kts 207°
2026-05-03 22:14 32.06614 -80.74793 993 ft 353 kts 207°
2026-05-03 22:15 32.04480 -80.76172 988 ft 350 kts 207°
2026-05-03 22:15 32.02362 -80.77536 991 ft 346 kts 207°
2026-05-03 22:15 32.00231 -80.78911 1025 ft 353 kts 207°
2026-05-03 22:15 31.98071 -80.80301 1041 ft 352 kts 207°
2026-05-03 22:16 31.95923 -80.81680 1015 ft 351 kts 207°
2026-05-03 22:16 31.93772 -80.83047 983 ft 350 kts 207°
2026-05-03 22:16 31.91657 -80.84402 999 ft 350 kts 206°
2026-05-03 22:16 31.89503 -80.85785 1005 ft 352 kts 208°
2026-05-03 22:17 31.87346 -80.87170 971 ft 352 kts 207°
2026-05-03 22:17 31.85202 -80.88550 977 ft 351 kts 207°
2026-05-03 22:17 31.83070 -80.89926 999 ft 348 kts 207°
2026-05-03 22:17 31.80927 -80.91312 1015 ft 352 kts 208°
2026-05-03 22:18 31.78778 -80.92702 1006 ft 354 kts 207°
2026-05-03 22:18 31.76645 -80.94093 1007 ft 347 kts 207°
2026-05-03 22:18 31.74560 -80.95459 999 ft 353 kts 207°
2026-05-03 22:18 31.72406 -80.96869 1008 ft 355 kts 207°
2026-05-03 22:19 31.70256 -80.98286 1010 ft 354 kts 207°
2026-05-03 22:19 31.68117 -80.99684 1004 ft 351 kts 207°
2026-05-03 22:19 31.65971 -81.01081 1016 ft 351 kts 207°
2026-05-03 22:19 31.63821 -81.02484 1033 ft 358 kts 207°
2026-05-03 22:20 31.61660 -81.03893 1020 ft 354 kts 207°
2026-05-03 22:20 31.59505 -81.05299 992 ft 352 kts 208°
2026-05-03 22:20 31.57319 -81.06715 989 ft 351 kts 207°
2026-05-03 22:20 31.55222 -81.08090 1013 ft 354 kts 208°
2026-05-03 22:21 31.53099 -81.09473 1021 ft 356 kts 207°
2026-05-03 22:21 31.50947 -81.10868 1005 ft 355 kts 207°
2026-05-03 22:21 31.48796 -81.12265 1011 ft 353 kts 208°
2026-05-03 22:21 31.46605 -81.13676 1016 ft 361 kts 208°
2026-05-03 22:22 31.44413 -81.15090 1002 ft 360 kts 208°
2026-05-03 22:22 31.42213 -81.16505 1006 ft 359 kts 207°
2026-05-03 22:22 31.40026 -81.17913 1005 ft 358 kts 208°
2026-05-03 22:22 31.37840 -81.19313 1027 ft 360 kts 207°
2026-05-03 22:23 31.35635 -81.20722 1028 ft 363 kts 207°
2026-05-03 22:23 31.33441 -81.22133 1012 ft 361 kts 208°
2026-05-03 22:23 31.31284 -81.23522 1001 ft 359 kts 207°
2026-05-03 22:23 31.29098 -81.24928 1011 ft 357 kts 207°
2026-05-03 22:24 31.26911 -81.26338 1015 ft 360 kts 207°
2026-05-03 22:24 31.24716 -81.27754 1015 ft 361 kts 208°
2026-05-03 22:24 31.22525 -81.29167 1019 ft 358 kts 207°
2026-05-03 22:24 31.20337 -81.30584 1024 ft 363 kts 207°
2026-05-03 22:25 31.18137 -81.32021 1007 ft 364 kts 207°
2026-05-03 22:25 31.15939 -81.33457 988 ft 363 kts 208°
2026-05-03 22:25 31.13747 -81.34891 976 ft 358 kts 208°
2026-05-03 22:25 31.11560 -81.36305 1009 ft 358 kts 205°
2026-05-03 22:26 31.09268 -81.37492 1014 ft 361 kts 200°
2026-05-03 22:26 31.06876 -81.38368 995 ft 356 kts 185°
2026-05-03 22:26 31.04394 -81.38570 1001 ft 353 kts 182°
2026-05-03 22:26 31.01929 -81.38780 993 ft 353 kts 183°
2026-05-03 22:27 30.99493 -81.38986 1002 ft 359 kts 182°
2026-05-03 22:27 30.97015 -81.39208 1021 ft 358 kts 183°
2026-05-03 22:27 30.94534 -81.39441 1011 ft 361 kts 182°
2026-05-03 22:27 30.92048 -81.39673 1026 ft 359 kts 183°
2026-05-03 22:28 30.89562 -81.39650 1023 ft 356 kts 173°
2026-05-03 22:28 30.87093 -81.39287 1039 ft 356 kts 170°
2026-05-03 22:28 30.84646 -81.38833 1018 ft 356 kts 168°
2026-05-03 22:28 30.82220 -81.38353 994 ft 339 kts 168°
2026-05-03 22:29 30.80015 -81.37919 970 ft 306 kts 168°
2026-05-03 22:29 30.77944 -81.37498 1004 ft 310 kts 169°
2026-05-03 22:29 30.75842 -81.37051 1022 ft 305 kts 167°
2026-05-03 22:29 30.73757 -81.36611 1044 ft 307 kts 168°
2026-05-03 22:30 30.71649 -81.36164 1023 ft 312 kts 168°
2026-05-03 22:30 30.69538 -81.35724 990 ft 306 kts 168°
2026-05-03 22:30 30.67437 -81.35282 989 ft 310 kts 167°
2026-05-03 22:30 30.65320 -81.34838 996 ft 306 kts 168°
2026-05-03 22:31 30.63208 -81.34404 1025 ft 324 kts 166°
2026-05-03 22:31 30.60578 -81.33323 1068 ft 463 kts 155°
2026-05-03 22:31 30.57840 -81.31469 1334 ft 460 kts 131°
2026-05-03 22:31 30.56735 -81.28130 1882 ft 454 kts 87°
2026-05-03 22:32 30.58171 -81.25042 2291 ft 453 kts 33°
2026-05-03 22:32 30.61211 -81.24669 2386 ft 463 kts 339°
2026-05-03 22:32 30.63235 -81.27445 2181 ft 467 kts 282°
2026-05-03 22:32 30.62660 -81.30913 1914 ft 430 kts 233°
2026-05-03 22:33 30.60483 -81.32893 2500 ft 392 kts 168°
2026-05-03 22:33 30.60465 -81.30465 2595 ft 398 kts 65°
2026-05-03 22:33 30.61310 -81.27355 2559 ft 387 kts 74°
2026-05-03 22:33 30.61946 -81.24347 2578 ft 392 kts 76°
2026-05-03 22:34 30.62555 -81.21272 2619 ft 388 kts 76°
2026-05-03 22:34 30.63179 -81.18298 2647 ft 382 kts 76°
2026-05-03 22:34 30.63887 -81.15294 2659 ft 383 kts 64°
2026-05-03 22:34 30.65723 -81.13039 2705 ft 392 kts 28°
2026-05-03 22:35 30.68359 -81.12395 2562 ft 389 kts 352°
2026-05-03 22:35 30.70666 -81.13606 2583 ft 361 kts 317°
2026-05-03 22:35 30.71935 -81.15900 2570 ft 332 kts 285°
2026-05-03 22:35 30.72019 -81.18591 2368 ft 343 kts 260°
2026-05-03 22:36 30.71307 -81.21263 2173 ft 347 kts 249°
2026-05-03 22:36 30.70441 -81.23959 2287 ft 369 kts 250°
2026-05-03 22:36 30.69538 -81.26901 2432 ft 432 kts 252°
2026-05-03 22:36 30.68482 -81.30536 2548 ft 497 kts 251°
2026-05-03 22:37 30.67417 -81.34063 2597 ft 443 kts 251°
2026-05-03 22:37 30.66484 -81.37243 2550 ft 393 kts 252°
2026-05-03 22:37 30.65688 -81.40099 2509 ft 350 kts 252°
2026-05-03 22:37 30.64943 -81.42737 2477 ft 346 kts 252°
2026-05-03 22:38 30.64212 -81.45389 2471 ft 345 kts 253°
2026-05-03 22:38 30.63473 -81.48326 2492 ft 392 kts 255°
2026-05-03 22:38 30.62721 -81.51430 2535 ft 410 kts 254°
2026-05-03 22:38 30.62002 -81.54457 2524 ft 368 kts 255°
2026-05-03 22:39 30.61377 -81.57210 2249 ft 341 kts 255°
2026-05-03 22:39 30.60636 -81.59899 1979 ft 361 kts 247°
2026-05-03 22:39 30.59539 -81.62558 1752 ft 374 kts 244°
2026-05-03 22:39 30.58362 -81.65289 1705 ft 379 kts 243°
2026-05-03 22:40 30.57222 -81.68039 1691 ft 366 kts 246°
2026-05-03 22:40 30.56369 -81.70761 1622 ft 349 kts 253°
2026-05-03 22:40 30.55769 -81.73441 1565 ft 340 kts 258°
2026-05-03 22:40 30.55256 -81.76219 1506 ft 369 kts 258°
2026-05-03 22:41 30.54712 -81.79085 1459 ft 359 kts 253°
2026-05-03 22:41 30.53392 -81.81554 1504 ft 368 kts 222°
2026-05-03 22:41 30.51095 -81.82804 1629 ft 366 kts 182°
2026-05-03 22:41 30.48779 -81.81973 1756 ft 354 kts 140°
2026-05-03 22:42 30.47424 -81.79618 1772 ft 354 kts 103°
2026-05-03 22:42 30.47526 -81.76886 1479 ft 328 kts 71°
2026-05-03 22:42 30.48315 -81.74323 1439 ft 350 kts 70°
2026-05-03 22:42 30.49128 -81.71651 1411 ft 349 kts 71°
2026-05-03 22:43 30.49901 -81.69006 1402 ft 346 kts 71°
2026-05-03 22:43 30.51216 -81.67468 1496 ft 272 kts 320°
2026-05-03 22:43 30.51679 -81.69576 1344 ft 276 kts 269°
2026-05-03 22:43 30.51515 -81.71740 1456 ft 264 kts 262°
2026-05-03 22:44 30.50885 -81.73514 1464 ft 233 kts 211°
2026-05-03 22:44 30.49534 -81.73366 1221 ft 206 kts 127°
2026-05-03 22:44 30.49188 -81.71860 655 ft 188 kts 86°
2026-05-03 22:44 30.49485 -81.70437 140 ft 180 kts 71°
2026-05-03 22:45 30.49881 -81.69178 41 ft 142 kts 72°
2026-05-03 22:45 30.50184 -81.68192 141 ft 173 kts 72°
2026-05-03 22:45 30.50786 -81.66163 769 ft 358 kts 71°
2026-05-03 22:45 30.51012 -81.62893 1300 ft 467 kts 108°
2026-05-03 22:46 30.48855 -81.60279 1695 ft 415 kts 134°
2026-05-03 22:46 30.46570 -81.58684 2129 ft 357 kts 142°
2026-05-03 22:46 30.44812 -81.56834 2236 ft 333 kts 128°
2026-05-03 22:46 30.43845 -81.54493 2221 ft 319 kts 99°
2026-05-03 22:47 30.43857 -81.52014 2061 ft 309 kts 78°
2026-05-03 22:47 30.44631 -81.49748 2042 ft 301 kts 64°
2026-05-03 22:47 30.45532 -81.47573 2032 ft 298 kts 64°
2026-05-03 22:47 30.46013 -81.45384 2379 ft 271 kts 99°
2026-05-03 22:48 30.45395 -81.43042 2496 ft 303 kts 103°
2026-05-03 22:48 30.45435 -81.40637 2532 ft 300 kts 72°
2026-05-03 22:48 30.46538 -81.38614 2547 ft 299 kts 41°
2026-05-03 22:48 30.48402 -81.37557 2556 ft 305 kts 11°
2026-05-03 22:49 30.50517 -81.37513 2542 ft 309 kts 358°
2026-05-03 22:49 30.52617 -81.37746 2547 ft 306 kts 354°
2026-05-03 22:49 30.54745 -81.38068 2533 ft 306 kts 353°
2026-05-03 22:49 30.56863 -81.38427 2531 ft 308 kts 353°
2026-05-03 22:50 30.58984 -81.38806 2529 ft 308 kts 353°
2026-05-03 22:50 30.61089 -81.39190 2519 ft 309 kts 353°
2026-05-03 22:50 30.63198 -81.39577 2516 ft 307 kts 353°
2026-05-03 22:50 30.65315 -81.39970 2513 ft 309 kts 352°
2026-05-03 22:51 30.67436 -81.40355 2528 ft 309 kts 353°
2026-05-03 22:51 30.69573 -81.40747 2518 ft 311 kts 353°
2026-05-03 22:51 30.71669 -81.41135 2511 ft 309 kts 353°
2026-05-03 22:51 30.73798 -81.41532 2495 ft 309 kts 353°
2026-05-03 22:52 30.75919 -81.41932 2502 ft 310 kts 353°
2026-05-03 22:52 30.78055 -81.42322 2521 ft 314 kts 353°
2026-05-03 22:52 30.80194 -81.42709 2535 ft 310 kts 353°
2026-05-03 22:52 30.82336 -81.43048 2531 ft 311 kts
2026-05-03 22:53 30.84432 -81.42628 2534 ft 303 kts 20°
2026-05-03 22:53 30.86421 -81.41763 2522 ft 308 kts 25°
2026-05-03 22:53 30.88376 -81.40807 2516 ft 304 kts 24°
2026-05-03 22:53 30.90373 -81.39969 2522 ft 307 kts 20°
2026-05-03 22:54 30.92363 -81.39177 2516 ft 304 kts 21°
2026-05-03 22:54 30.94357 -81.38304 2510 ft 306 kts 22°
2026-05-03 22:54 30.96355 -81.37443 2506 ft 308 kts 21°
2026-05-03 22:54 30.98374 -81.36596 2514 ft 309 kts 21°
2026-05-03 22:55 31.00391 -81.35749 2505 ft 310 kts 21°
2026-05-03 22:55 31.02407 -81.34881 2501 ft 308 kts 21°
2026-05-03 22:55 31.04419 -81.34025 2492 ft 306 kts 21°
2026-05-03 22:55 31.06427 -81.33172 2486 ft 308 kts 21°
2026-05-03 22:56 31.08438 -81.32324 2497 ft 308 kts 21°
2026-05-03 22:56 31.09772 -81.31752 2505 ft 310 kts 21°
2026-05-03 22:56 31.11791 -81.30892 2509 ft 309 kts 22°
2026-05-03 22:56 31.14455 -81.29753 2485 ft 307 kts 21°
2026-05-03 22:57 31.16463 -81.28901 2483 ft 307 kts 22°
2026-05-03 22:57 31.18477 -81.28036 2488 ft 308 kts 21°
2026-05-03 22:57 31.20476 -81.27185 2501 ft 309 kts 21°
2026-05-03 22:57 31.21805 -81.26619 2507 ft 307 kts 21°
2026-05-03 22:58 31.23826 -81.25756 2501 ft 310 kts 21°
2026-05-03 22:58 31.25858 -81.24887 2503 ft 310 kts 21°
2026-05-03 22:58 31.27883 -81.24024 2501 ft 310 kts 21°
2026-05-03 22:58 31.29917 -81.23150 2501 ft 310 kts 21°
2026-05-03 22:59 31.31944 -81.22287 2511 ft 310 kts 21°
2026-05-03 22:59 31.34634 -81.21134 2515 ft 311 kts 21°
2026-05-03 22:59 31.36007 -81.20547 2523 ft 311 kts 21°
2026-05-03 22:59 31.38691 -81.19395 2511 ft 310 kts 21°
2026-05-03 23:00 31.40063 -81.18809 2520 ft 311 kts 21°
2026-05-03 23:00 31.42091 -81.17936 2515 ft 310 kts 21°
2026-05-03 23:00 31.44091 -81.17079 2510 ft 310 kts 21°
2026-05-03 23:00 31.46123 -81.16207 2507 ft 309 kts 21°
2026-05-03 23:01 31.48150 -81.15338 2503 ft 310 kts 21°
2026-05-03 23:01 31.50203 -81.14455 2512 ft 320 kts 21°
2026-05-03 23:01 31.52275 -81.13565 2505 ft 316 kts 21°
2026-05-03 23:01 31.54344 -81.12674 2505 ft 316 kts 20°
2026-05-03 23:02 31.56412 -81.11786 2507 ft 316 kts 21°
2026-05-03 23:02 31.58478 -81.10897 2504 ft 316 kts 21°
2026-05-03 23:02 31.60515 -81.10016 2501 ft 315 kts 20°
2026-05-03 23:02 31.62576 -81.09130 2495 ft 317 kts 21°
2026-05-03 23:03 31.64647 -81.08241 2504 ft 317 kts 21°
2026-05-03 23:03 31.66715 -81.07345 2493 ft 317 kts 21°
2026-05-03 23:03 31.68780 -81.06454 2485 ft 316 kts 20°
2026-05-03 23:03 31.70849 -81.05561 2490 ft 317 kts 21°
2026-05-03 23:04 31.72920 -81.04668 2488 ft 315 kts 21°
2026-05-03 23:04 31.74965 -81.03784 2485 ft 318 kts 21°
2026-05-03 23:04 31.77033 -81.02889 2474 ft 317 kts 21°
2026-05-03 23:04 31.79644 -81.01756 2512 ft 496 kts 21°
2026-05-03 23:05 31.83334 -81.00161 2555 ft 616 kts 20°
2026-05-03 23:05 31.87458 -80.98381 2566 ft 639 kts 20°
2026-05-03 23:05 31.91627 -80.96564 2547 ft 640 kts 20°
2026-05-03 23:05 31.95802 -80.94758 2533 ft 640 kts 20°
2026-05-03 23:06 31.99974 -80.92945 2518 ft 640 kts 21°
2026-05-03 23:06 32.04144 -80.91125 2511 ft 640 kts 20°
2026-05-03 23:06 32.08314 -80.89320 2529 ft 638 kts 20°
2026-05-03 23:06 32.12471 -80.87501 2523 ft 638 kts 20°
2026-05-03 23:07 32.16630 -80.85689 2522 ft 638 kts 20°
2026-05-03 23:07 32.20734 -80.83901 2519 ft 637 kts 20°
2026-05-03 23:07 32.24895 -80.82075 2526 ft 638 kts 20°
2026-05-03 23:07 32.29059 -80.80262 2521 ft 638 kts 20°
2026-05-03 23:08 32.33199 -80.78443 2523 ft 620 kts 20°
2026-05-03 23:08 32.36802 -80.76864 2495 ft 490 kts 20°
2026-05-03 23:08 32.39735 -80.75580 2466 ft 416 kts 20°
2026-05-03 23:08 32.42307 -80.74455 1736 ft 352 kts 20°
2026-05-03 23:09 32.44494 -80.73502 1072 ft 328 kts 20°
2026-05-03 23:09 32.46466 -80.72626 935 ft 264 kts 22°
2026-05-03 23:09 32.47831 -80.71764 525 ft 183 kts 35°
2026-05-03 23:09 32.48427 -80.71151 390 ft 35 kts 46°
2026-05-03 23:10 32.48606 -80.70996 252 ft 24 kts 343°
2026-05-03 23:10 32.48641 -80.70956 143 ft 4 kts 327°
2026-05-03 23:10 32.48642 -80.70960 36 ft 0 kts 312°
2026-05-03 23:10 32.48676 -80.71005 35 ft 19 kts 312°
2026-05-03 23:11 32.48675 -80.71119 35 ft 16 kts 221°
2026-05-03 23:11 32.48591 -80.71204 36 ft 16 kts 222°
2026-05-03 23:11 32.48508 -80.71296 35 ft 17 kts 222°
2026-05-03 23:11 32.48418 -80.71390 35 ft 18 kts 221°
2026-05-03 23:12 32.48325 -80.71488 35 ft 18 kts 220°
2026-05-03 23:12 32.48226 -80.71591 34 ft 20 kts 221°
2026-05-03 23:12 32.48123 -80.71700 33 ft 20 kts 221°
2026-05-03 23:12 32.48007 -80.71822 32 ft 29 kts 223°
2026-05-03 23:13 32.47787 -80.72057 33 ft 48 kts 221°
2026-05-03 23:13 32.47549 -80.72306 32 ft 38 kts 220°
2026-05-03 23:13 32.47427 -80.72322 31 ft 28 kts 138°
2026-05-03 23:13 32.47288 -80.72310 31 ft 0 kts 159°